| time (UTC) | temp C | wind direction | speed KPH | gust KPH | rain 1hr cm | rain 24hr cm | rain mn cm | humidity % | barometer mb |
| 20260504034558 | 11 | 187 | 6.4 | 11.3 | 0.00 | 0.08 | 0.08 | 43 | 1010.7 |
| 20260504033052 | 10 | 178 | 4.8 | 9.7 | 0.00 | 0.08 | 0.08 | 35 | 1010.9 |
| 20260504031549 | 10 | 194 | 3.2 | 9.7 | 0.00 | 0.08 | 0.08 | 27 | 1011.0 |
| 20260504030042 | 10 | 165 | 1.6 | 6.4 | 0.00 | 0.08 | 0.08 | 25 | 1011.2 |
| 20260504024542 | 10 | 157 | 4.8 | 9.7 | 0.00 | 0.08 | 0.08 | 27 | 1011.4 |
| 20260504023033 | 10 | 158 | 4.8 | 9.7 | 0.00 | 0.08 | 0.08 | 29 | 1011.5 |
| 20260504021529 | 10 | 155 | 4.8 | 11.3 | 0.00 | 0.08 | 0.08 | 28 | 1011.6 |
| 20260504020025 | 10 | 157 | 6.4 | 11.3 | 0.00 | 0.08 | 0.08 | 19 | 1011.6 |
| 20260504014520 | 9 | 166 | 1.6 | 8.0 | 0.00 | 0.08 | 0.08 | 19 | 1011.7 |
| 20260504013018 | 10 | 163 | 4.8 | 8.0 | 0.00 | 0.08 | 0.08 | 27 | 1011.7 |
| 20260504011511 | 10 | 162 | 4.8 | 9.7 | 0.00 | 0.08 | 0.08 | 33 | 1011.8 |
| 20260504010007 | 10 | 163 | 4.8 | 11.3 | 0.00 | 0.08 | 0.08 | 32 | 1011.7 |
| 20260504004508 | 9 | 164 | 3.2 | 8.0 | 0.00 | 0.08 | 0.08 | 28 | 1011.7 |
| 20260504003059 | 9 | 159 | 6.4 | 11.3 | 0.00 | 0.08 | 0.08 | 29 | 1011.8 |
| 20260504001554 | 9 | 162 | 6.4 | 11.3 | 0.00 | 0.08 | 0.08 | 23 | 1011.9 |
| 20260504000119 | 9 | 163 | 3.2 | 8.0 | 0.00 | 0.08 | 0.08 | 19 | 1012.1 |
| 20260503234552 | 9 | 158 | 4.8 | 9.7 | 0.00 | 0.08 | 0.08 | 21 | 1012.2 |
| 20260503233041 | 8 | 161 | 4.8 | 9.7 | 0.00 | 0.08 | 0.08 | 8 | 1012.1 |
| 20260503231537 | 8 | 156 | 6.4 | 12.9 | 0.00 | 0.08 | 0.08 | 1 | 1012.0 |
| 20260503230032 | 8 | 161 | 6.4 | 12.9 | 0.00 | 0.08 | 0.08 | 1 | 1012.3 |
| 20260503224529 | 8 | 154 | 6.4 | 12.9 | 0.00 | 0.08 | 0.08 | 1 | 1012.2 |
| 20260503223025 | 7 | 160 | 6.4 | 11.3 | 0.00 | 0.08 | 0.08 | 1 | 1012.5 |
| 20260503221519 | 7 | 166 | 8.0 | 12.9 | 0.00 | 0.08 | 0.08 | 1 | 1012.5 |
| 20260503220015 | 7 | 167 | 4.8 | 11.3 | 0.05 | 0.08 | 0.08 | 1 | 1013.0 |
| 20260503214510 | 6 | 158 | 4.8 | 9.7 | 0.05 | 0.08 | 0.08 | 1 | 1013.2 |
| 20260503213006 | 6 | 156 | 6.4 | 9.7 | 0.08 | 0.08 | 0.08 | 1 | 1013.6 |
| 20260503211501 | 6 | 159 | 3.2 | 8.0 | 0.08 | 0.08 | 0.08 | 1 | 1013.9 |
| 20260503210057 | 7 | 194 | 0.0 | 11.3 | 0.03 | 0.03 | 0.03 | 1 | 1014.5 |
| 20260503204553 | 8 | 213 | 8.0 | 20.9 | 0.03 | 0.03 | 0.03 | 1 | 1015.1 |
| 20260503203105 | 9 | 216 | 17.7 | 33.8 | 0.00 | 0.00 | 0.00 | 33 | 1015.5 |
| 20260503201547 | 11 | 360 | 22.5 | 41.8 | 0.00 | 0.00 | 0.00 | 59 | 1015.3 |
| 20260503200046 | 13 | 306 | 19.3 | 35.4 | 0.00 | 0.00 | 0.00 | 49 | 1014.9 |
| 20260503194553 | 13 | 220 | 16.1 | 22.5 | 0.00 | 0.00 | 0.00 | 45 | 1014.7 |
| 20260503193050 | 14 | 223 | 17.7 | 29.0 | 0.00 | 0.00 | 0.00 | 45 | 1014.8 |
| 20260503191544 | 14 | 255 | 16.1 | 29.0 | 0.00 | 0.00 | 0.00 | 43 | 1014.8 |
| 20260503190045 | 14 | 247 | 14.5 | 22.5 | 0.00 | 0.00 | 0.00 | 44 | 1014.8 |
| 20260503184541 | 14 | 360 | 12.9 | 25.7 | 0.00 | 0.00 | 0.00 | 43 | 1014.9 |
| 20260503183040 | 14 | 213 | 22.5 | 35.4 | 0.00 | 0.00 | 0.00 | 42 | 1015.2 |
| 20260503181539 | 15 | 248 | 16.1 | 25.7 | 0.00 | 0.00 | 0.00 | 43 | 1015.4 |
| 20260503180036 | 14 | 212 | 11.3 | 30.6 | 0.00 | 0.00 | 0.00 | 44 | 1015.6 |
| 20260503174534 | 14 | 217 | 17.7 | 32.2 | 0.00 | 0.00 | 0.00 | 45 | 1015.8 |
| 20260503173047 | 14 | 238 | 19.3 | 38.6 | 0.00 | 0.00 | 0.00 | 44 | 1016.1 |
| 20260503171535 | 14 | 218 | 17.7 | 30.6 | 0.00 | 0.00 | 0.00 | 43 | 1016.3 |
| 20260503081513 | 3 | 212 | 3.2 | 8.0 | 0.00 | 0.00 | 0.00 | 45 | 1017.6 |
| 20260503071605 | 2 | 237 | 0.0 | 1.6 | 0.00 | 0.00 | 0.00 | 38 | 1017.7 |
| 20260503070104 | 2 | 237 | 1.6 | 6.4 | 0.00 | 0.00 | 0.00 | 35 | 1017.8 |
| 20260503060105 | 2 | 239 | 0.0 | 0.0 | 0.00 | 0.00 | 0.00 | 36 | 1018.3 |
| 20260503054548 | 3 | 239 | 0.0 | 1.6 | 0.00 | 0.00 | 0.00 | 33 | 1018.3 |
| 20260503053046 | 3 | 239 | 0.0 | 3.2 | 0.00 | 0.00 | 0.00 | 37 | 1018.4 |
| 20260503051544 | 3 | 239 | 0.0 | 0.0 | 0.00 | 0.00 | 0.00 | 42 | 1018.5 |
| 20260503050043 | 3 | 239 | 0.0 | 0.0 | 0.00 | 0.00 | 0.00 | 43 | 1018.4 |
| 20260503044541 | 3 | 239 | 0.0 | 3.2 | 0.00 | 0.00 | 0.00 | 43 | 1018.4 |
| 20260503043039 | 3 | 239 | 0.0 | 3.2 | 0.00 | 0.00 | 0.00 | 44 | 1018.4 |
| 20260503041538 | 3 | 267 | 0.0 | 0.0 | 0.00 | 0.00 | 0.00 | 44 | 1018.3 |
| 20260503040037 | 3 | 267 | 0.0 | 0.0 | 0.00 | 0.00 | 0.00 | 46 | 1018.4 |